Simultaneous Nadir Overpasses (SNOs) Predictions

Prediction of SNOs between NOAA-19 and TERRA Satellite Orbit:

Table of predicted SNOs for the next 14.0 days since TLE Epoch: 6/6/2015
Index Date (NOAA-19) Time (NOAA-19) Lat,Lon (NOAA-19) SZA (NOAA-19 ) Date (TERRA) Time (TERRA) Lat,Lon (TERRA) SZA (TERRA ) Distance(km) Time Diff (sec)
1 06/07/2015 22:23:47 -72.08, 27.74 130.76 06/07/2015 22:24:40 -72.05, 27.76 130.78 2.64 53
2 06/07/2015 23:14:51 71.92,-164.74 49.09 06/07/2015 23:14:08 71.92,-164.83 49.08 3.20 43
3 06/10/2015 03:58:15 72.04, 124.23 49.01 06/10/2015 03:58:25 72.01, 124.26 48.99 3.04 10
4 06/10/2015 04:49:08 -71.92, -68.27 131.11 06/10/2015 04:47:54 -71.94, -68.23 131.09 3.12 74
5 06/12/2015 08:41:38 72.11, 53.28 48.93 06/12/2015 08:42:42 72.10, 53.34 48.92 2.50 64
6 06/12/2015 09:32:31 -72.00,-139.24 131.18 06/12/2015 09:32:12 -71.98,-139.24 131.21 2.53 19
7 06/14/2015 14:15:53 -72.04, 149.89 131.27 06/14/2015 14:16:29 -72.06, 149.83 131.25 3.21 36
8 06/14/2015 15:06:59 71.96, -42.73 48.65 06/14/2015 15:05:56 71.97, -42.69 48.65 1.87 63
9 06/16/2015 18:59:29 -72.78, 77.55 130.65 06/16/2015 19:00:36 -72.67, 79.86 130.71 77.24 67
10 06/16/2015 19:50:22 72.05,-113.71 48.64 06/16/2015 19:50:13 72.04,-113.64 48.63 2.41 9
11 06/16/2015 20:41:02 -71.29, 55.00 132.08 06/16/2015 20:39:54 -71.34, 52.80 132.10 78.66 68
12 06/19/2015 00:33:44 72.09, 175.40 48.63 06/19/2015 00:34:30 72.10, 175.39 48.64 1.04 46
13 06/19/2015 01:24:37 -71.99, -17.13
